DW8343 Weather Reports


time (UTC)temp
C
wind
direction
speed
KPH
gust
KPH
rain 1hr
cm
rain 24hr
cm
rain mn
cm
humidity
%
barometer
mb
20260905202825 38 358 0.0 3.2 0.00 0.00 0.00 36 1013.9
20260905202320 38 266 3.2 6.4 0.00 0.00 0.00 36 1014.1
20260905201815 37 47 1.6 6.4 0.00 0.00 0.00 37 1014.1
20260905201311 38 94 0.0 11.3 0.00 0.00 0.00 37 1014.2
20260905200810 38 261 4.8 6.4 0.00 0.00 0.00 36 1014.2
20260905200307 38 87 1.6 9.7 0.00 0.00 0.00 36 1014.5
20260905195804 38 291 1.6 6.4 0.00 0.00 0.00 37 1014.5
20260905195300 38 245 4.8 11.3 0.00 0.00 0.00 36 1014.5
20260905194755 38 201 4.8 11.3 0.00 0.00 0.00 36 1014.6
20260905194254 38 252 4.8 9.7 0.00 0.00 0.00 37 1014.8
20260905193749 37 109 6.4 6.4 0.00 0.00 0.00 38 1014.7
20260905193243 38 109 3.2 6.4 0.00 0.00 0.00 37 1014.8
20260905192738 38 262 6.4 12.9 0.00 0.00 0.00 37 1014.9
20260905192235 37 240 1.6 6.4 0.00 0.00 0.00 38 1014.9
20260905191734 38 145 0.0 6.4 0.00 0.00 0.00 36 1015.1
20260905191232 37 262 6.4 11.3 0.00 0.00 0.00 37 1015.1
20260905190731 38 294 3.2 9.7 0.00 0.00 0.00 38 1015.1
20260905190230 37 245 1.6 4.8 0.00 0.00 0.00 38 1015.2
20260905185729 37 226 1.6 4.8 0.00 0.00 0.00 39 1015.3
20260905185224 37 303 4.8 9.7 0.00 0.00 0.00 38 1015.5
20260905184719 37 57 6.4 9.7 0.00 0.00 0.00 39 1015.6
20260905184217 37 119 1.6 3.2 0.00 0.00 0.00 39 1015.6
20260905183712 37 28 1.6 3.2 0.00 0.00 0.00 39 1015.6
20260905183207 38 344 0.0 3.2 0.00 0.00 0.00 38 1015.7
20260905182701 36 91 0.0 4.8 0.00 0.00 0.00 42 1015.8
20260905182200 37 53 6.4 9.7 0.00 0.00 0.00 40 1015.9
20260905181655 37 304 8.0 11.3 0.00 0.00 0.00 39 1015.9
20260905181149 37 24 6.4 11.3 0.00 0.00 0.00 39 1015.9
20260905180644 36 204 1.6 3.2 0.00 0.00 0.00 42 1015.9
20260905180139 36 259 4.8 9.7 0.00 0.00 0.00 42 1015.8
20260905175638 36 92 3.2 4.8 0.00 0.00 0.00 42 1015.8
20260905175134 36 51 3.2 4.8 0.00 0.00 0.00 44 1016.1
20260905174629 36 240 1.6 4.8 0.00 0.00 0.00 42 1016.3
20260905174125 36 9 4.8 6.4 0.00 0.00 0.00 44 1016.4
20260905173620 36 78 3.2 6.4 0.00 0.00 0.00 43 1016.3
20260905173115 36 229 4.8 6.4 0.00 0.00 0.00 42 1016.4
20260905172609 35 249 1.6 6.4 0.00 0.00 0.00 44 1016.4
20260905172104 36 48 4.8 6.4 0.00 0.00 0.00 43 1016.4
20260905171601 36 221 4.8 9.7 0.00 0.00 0.00 43 1016.5
20260905171056 35 30 0.0 4.8 0.00 0.00 0.00 45 1016.6
20260905170553 36 49 4.8 9.7 0.00 0.00 0.00 46 1016.5
20260905170048 36 180 1.6 4.8 0.00 0.00 0.00 45 1016.6
20260905165543 35 225 6.4 11.3 0.00 0.00 0.00 45 1016.5
20260905165037 35 161 0.0 6.4 0.00 0.00 0.00 45 1016.4
20260905164532 35 48 1.6 4.8 0.00 0.00 0.00 45 1016.6
20260905164027 36 305 8.0 9.7 0.00 0.00 0.00 45 1016.7
20260905163523 36 152 1.6 3.2 0.00 0.00 0.00 43 1016.7
20260905163019 35 232 1.6 3.2 0.00 0.00 0.00 45 1016.7
20260905162515 35 234 1.6 6.4 0.00 0.00 0.00 46 1016.6
20260905162009 35 64 0.0 4.8 0.00 0.00 0.00 46 1016.7
20260905161508 35 262 1.6 4.8 0.00 0.00 0.00 45 1016.7
20260905161006 35 268 3.2 4.8 0.00 0.00 0.00 47 1016.8
20260905160500 34 279 4.8 6.4 0.00 0.00 0.00 48 1016.7
20260905160000 34 224 1.6 6.4 0.00 0.00 0.00 48 1016.7
20260905155455 34 232 3.2 6.4 0.00 0.00 0.00 48 1016.5
20260905154953 34 235 3.2 6.4 0.00 0.00 0.00 50 1016.4
20260905154448 33 279 3.2 6.4 0.00 0.00 0.00 50 1016.5
20260905153943 33 199 3.2 4.8 0.00 0.00 0.00 50 1016.5
20260905153440 33 93 3.2 9.7 0.00 0.00 0.00 51 1016.6
20260905152939 33 225 6.4 9.7 0.00 0.00 0.00 50 1016.5
20260905152439 33 133 0.0 1.6 0.00 0.00 0.00 51 1016.4
20260905151934 33 155 3.2 6.4 0.00 0.00 0.00 51 1016.5
20260905151430 33 188 1.6 4.8 0.00 0.00 0.00 52 1016.4
20260905150925 32 254 3.2 6.4 0.00 0.00 0.00 53 1016.4
20260905150424 32 35 0.0 4.8 0.00 0.00 0.00 54 1016.4
20260905145920 32 237 3.2 6.4 0.00 0.00 0.00 53 1016.5
20260905145415 32 320 3.2 6.4 0.00 0.00 0.00 54 1016.6
20260905144909 31 308 0.0 4.8 0.00 0.00 0.00 54 1016.5
20260905144405 31 235 4.8 6.4 0.00 0.00 0.00 55 1016.4
20260905143903 31 261 4.8 4.8 0.00 0.00 0.00 55 1016.3
20260905143357 31 307 1.6 4.8 0.00 0.00 0.00 56 1016.4
20260905142852 31 138 1.6 6.4 0.00 0.00 0.00 56 1016.4
20260905142350 31 238 1.6 6.4 0.00 0.00 0.00 57 1016.5
20260905141847 30 254 1.6 4.8 0.00 0.00 0.00 58 1016.3
20260905141342 30 114 1.6 3.2 0.00 0.00 0.00 58 1016.2
20260905140838 30 322 1.6 3.2 0.00 0.00 0.00 60 1016.3
20260905140337 30 273 1.6 4.8 0.00 0.00 0.00 61 1016.3
20260905135835 30 226 0.0 4.8 0.00 0.00 0.00 61 1016.3
20260905135331 29 172 1.6 3.2 0.00 0.00 0.00 61 1016.6
20260905134827 29 184 3.2 4.8 0.00 0.00 0.00 61 1016.2
20260905134320 28 240 0.0 4.8 0.00 0.00 0.00 63 1016.2
20260905133815 28 171 3.2 4.8 0.00 0.00 0.00 63 1015.9
20260905133310 28 82 1.6 1.6 0.00 0.00 0.00 64 1015.9
20260905132809 28 300 0.0 4.8 0.00 0.00 0.00 65 1016.4
20260905132306 28 288 1.6 3.2 0.00 0.00 0.00 65 1016.1
20260905131759 27 265 3.2 4.8 0.00 0.00 0.00 66 1016.2
20260905131255 27 259 1.6 3.2 0.00 0.00 0.00 67 1016.2
20260905130750 27 312 0.0 3.2 0.00 0.00 0.00 68 1015.9
20260905130249 27 207 3.2 3.2 0.00 0.00 0.00 67 1016.2
20260905125744 27 250 1.6 1.6 0.00 0.00 0.00 68 1015.9
20260905125239 26 87 1.6 1.6 0.00 0.00 0.00 68 1015.6
20260905124736 26 211 0.0 3.2 0.00 0.00 0.00 68 1015.7
20260905124231 26 249 1.6 3.2 0.00 0.00 0.00 68 1015.8
20260905123726 26 268 0.0 3.2 0.00 0.00 0.00 69 1015.7
20260905123223 26 256 0.0 1.6 0.00 0.00 0.00 69 1015.5
20260905122723 26 74 1.6 3.2 0.00 0.00 0.00 69 1015.7
20260905122217 26 90 0.0 1.6 0.00 0.00 0.00 70 1015.4
20260905121712 26 90 0.0 1.6 0.00 0.00 0.00 70 1015.7
20260905121208 26 90 0.0 0.0 0.00 0.00 0.00 69 1015.5
20260905120707 26 90 0.0 0.0 0.00 0.00 0.00 69 1015.4
20260905120201 26 90 0.0 1.6 0.00 0.00 0.00 69 1015.3
20260905115656 26 287 0.0 0.0 0.00 0.00 0.00 69 1015.5
20260905115151 26 185 0.0 0.0 0.00 0.00 0.00 68 1015.2
20260905114651 26 189 0.0 1.6 0.00 0.00 0.00 68 1015.1
20260905114149 26 183 1.6 1.6 0.00 0.00 0.00 68 1015.3
20260905113643 26 278 0.0 1.6 0.00 0.00 0.00 68 1015.1
20260905113139 27 183 0.0 1.6 0.00 0.00 0.00 67 1015.3
20260905112633 27 196 0.0 0.0 0.00 0.00 0.00 67 1015.2
20260905112129 27 253 0.0 4.8 0.00 0.00 0.00 67 1015.3
20260905111624 27 207 0.0 1.6 0.00 0.00 0.00 66 1015.4
20260905111123 27 200 0.0 3.2 0.00 0.00 0.00 66 1015.2
20260905110622 27 248 0.0 3.2 0.00 0.00 0.00 66 1015.5
20260905110117 27 296 0.0 1.6 0.00 0.00 0.00 65 1015.6
20260905105618 27 236 1.6 3.2 0.00 0.00 0.00 65 1015.3
20260905105116 27 258 0.0 4.8 0.00 0.00 0.00 65 1015.4
20260905104612 27 54 0.0 4.8 0.00 0.00 0.00 64 1015.0
20260905104107 27 292 1.6 4.8 0.00 0.00 0.00 64 1015.3
20260905103602 27 258 3.2 4.8 0.00 0.00 0.00 64 1015.3
20260905103058 28 286 0.0 1.6 0.00 0.00 0.00 64 1015.5
20260905102548 28 26 1.6 3.2 0.00 0.00 0.00 63 1015.2
20260905102045 28 47 0.0 1.6 0.00 0.00 0.00 63 1015.4
20260905101543 28 198 3.2 3.2 0.00 0.00 0.00 63 1015.3
20260905101041 28 257 1.6 3.2 0.00 0.00 0.00 63 1015.1
20260905100538 28 271 1.6 3.2 0.00 0.00 0.00 62 1015.2
20260905100037 28 112 0.0 1.6 0.00 0.00 0.00 62 1015.2
20260905095532 28 27 1.6 3.2 0.00 0.00 0.00 62 1015.2
20260905095027 28 101 1.6 4.8 0.00 0.00 0.00 61 1015.5
20260905094522 28 213 1.6 4.8 0.00 0.00 0.00 61 1015.4
20260905094021 28 138 0.0 4.8 0.00 0.00 0.00 61 1015.3
20260905093516 28 6 3.2 6.4 0.00 0.00 0.00 60 1015.3
20260905093013 28 358 0.0 1.6 0.00 0.00 0.00 60 1015.1
20260905092512 29 300 3.2 3.2 0.00 0.00 0.00 60 1015.2
20260905092009 29 337 3.2 9.7 0.00 0.00 0.00 60 1015.2
20260905091508 29 244 1.6 1.6 0.00 0.00 0.00 60 1015.3
20260905091002 29 296 0.0 1.6 0.00 0.00 0.00 59 1015.1
20260905090457 29 301 1.6 4.8 0.00 0.00 0.00 59 1015.4
20260905085956 29 244 3.2 4.8 0.00 0.00 0.00 59 1015.3
20260905085455 29 266 1.6 4.8 0.00 0.00 0.00 59 1015.3
20260905084951 29 112 1.6 6.4 0.00 0.00 0.00 59 1015.1
20260905084451 29 262 3.2 6.4 0.00 0.00 0.00 59 1015.2
20260905083950 29 337 1.6 3.2 0.00 0.00 0.00 59 1015.1
20260905083446 29 240 0.0 3.2 0.00 0.00 0.00 59 1015.1
20260905082942 29 261 1.6 3.2 0.00 0.00 0.00 59 1015.0
20260905082438 30 27 1.6 6.4 0.00 0.00 0.00 58 1015.0
20260905081933 30 226 0.0 4.8 0.00 0.00 0.00 59 1015.0
20260905081428 30 238 0.0 4.8 0.00 0.00 0.00 58 1015.0
20260905080927 30 166 1.6 9.7 0.00 0.00 0.00 58 1014.9
20260905080422 30 310 3.2 4.8 0.00 0.00 0.00 58 1014.9
20260905075920 30 286 0.0 3.2 0.00 0.00 0.00 58 1014.9
20260905075415 30 271 3.2 9.7 0.00 0.00 0.00 58 1014.8
20260905074914 30 47 4.8 4.8 0.00 0.00 0.00 58 1014.8
20260905074410 29 349 1.6 3.2 0.00 0.00 0.00 58 1014.8
20260905073906 29 2 1.6 3.2 0.00 0.00 0.00 58 1014.7
20260905073401 30 275 1.6 6.4 0.00 0.00 0.00 58 1014.7
20260905072856 30 310 0.0 1.6 0.00 0.00 0.00 58 1014.9
20260905072350 29 97 1.6 3.2 0.00 0.00 0.00 59 1014.9
20260905071846 29 300 3.2 4.8 0.00 0.00 0.00 58 1015.0
20260905071343 29 292 0.0 3.2 0.00 0.00 0.00 59 1015.0
20260905070842 29 12 1.6 1.6 0.00 0.00 0.00 59 1014.8
20260905070339 29 179 0.0 1.6 0.00 0.00 0.00 59 1015.1
20260905065838 29 226 0.0 0.0 0.00 0.00 0.00 60 1015.0
20260905065336 29 234 0.0 3.2 0.00 0.00 0.00 59 1015.1
20260905064832 29 139 3.2 3.2 0.00 0.00 0.00 58 1015.0
20260905064328 29 324 0.0 6.4 0.00 0.00 0.00 58 1015.0
20260905063826 29 312 1.6 1.6 0.00 0.00 0.00 59 1014.9
20260905063322 30 274 1.6 1.6 0.00 0.00 0.00 58 1015.0
20260905062819 29 5 1.6 3.2 0.00 0.00 0.00 58 1014.9
20260905062313 29 264 1.6 4.8 0.00 0.00 0.00 58 1015.1
20260905061808 30 223 0.0 3.2 0.00 0.00 0.00 58 1015.1
20260905061307 30 34 0.0 1.6 0.00 0.00 0.00 58 1015.1
20260905060802 30 162 0.0 3.2 0.00 0.00 0.00 57 1015.2
20260905060253 30 260 3.2 4.8 0.00 0.00 0.00 57 1015.2
20260905055752 30 252 0.0 3.2 0.00 0.00 0.00 57 1015.2
20260905055247 30 6 1.6 4.8 0.00 0.00 0.00 57 1015.3
20260905054742 30 218 3.2 4.8 0.00 0.00 0.00 56 1015.2
20260905054238 30 233 1.6 3.2 0.00 0.00 0.00 56 1015.1
20260905053737 30 200 1.6 4.8 0.00 0.00 0.00 56 1015.0
20260905053233 30 192 1.6 1.6 0.00 0.00 0.00 56 1015.2
20260905052726 30 164 1.6 3.2 0.00 0.00 0.00 56 1015.1
20260905052222 30 291 1.6 3.2 0.00 0.00 0.00 55 1015.2
20260905051721 30 182 1.6 3.2 0.00 0.00 0.00 55 1015.1
20260905051218 30 162 3.2 3.2 0.00 0.00 0.00 55 1015.0
20260905050714 30 305 0.0 4.8 0.00 0.00 0.00 55 1015.2
20260905050211 31 37 1.6 4.8 0.00 0.00 0.00 55 1015.1
20260905045710 31 130 1.6 3.2 0.00 0.00 0.00 54 1015.1
20260905045206 31 99 3.2 4.8 0.00 0.00 0.00 54 1015.2
20260905044700 31 103 1.6 1.6 0.00 0.00 0.00 54 1015.1
20260905044155 31 303 3.2 4.8 0.00 0.00 0.00 54 1015.1
20260905043654 31 167 1.6 6.4 0.00 0.00 0.00 54 1015.1
20260905043149 31 128 0.0 3.2 0.00 0.00 0.00 54 1015.2
20260905042649 31 303 3.2 4.8 0.00 0.00 0.00 53 1015.2
20260905042143 31 145 3.2 4.8 0.00 0.00 0.00 53 1015.1
20260905041639 31 142 4.8 6.4 0.00 0.00 0.00 53 1015.3
20260905041134 31 84 0.0 3.2 0.00 0.00 0.00 53 1015.1
20260905040629 31 330 1.6 4.8 0.00 0.00 0.00 53 1014.9
20260905040127 31 25 0.0 6.4 0.00 0.00 0.00 53 1014.9
20260905035622 32 264 3.2 4.8 0.00 0.00 0.00 52 1015.1
20260905035119 32 228 0.0 6.4 0.00 0.00 0.00 52 1015.1
20260905034614 32 46 6.4 9.7 0.00 0.00 0.00 52 1015.0
20260905034109 32 294 1.6 3.2 0.00 0.00 0.00 52 1014.9
20260905033608 32 167 1.6 9.7 0.00 0.00 0.00 52 1014.8
20260905033104 32 137 3.2 9.7 0.00 0.00 0.00 52 1014.9
20260905032603 32 70 0.0 4.8 0.00 0.00 0.00 52 1014.8
20260905032058 32 26 3.2 6.4 0.00 0.00 0.00 52 1014.8
20260905031554 32 329 3.2 4.8 0.00 0.00 0.00 52 1014.6
20260905031054 32 344 1.6 6.4 0.00 0.00 0.00 51 1014.6
20260905030549 32 42 1.6 3.2 0.00 0.00 0.00 51 1014.4
20260905030043 32 173 3.2 4.8 0.00 0.00 0.00 51 1014.3
20260905025538 32 267 1.6 4.8 0.00 0.00 0.00 51 1014.1
20260905025035 32 149 1.6 6.4 0.00 0.00 0.00 50 1014.3
20260905024530 32 290 3.2 6.4 0.00 0.00 0.00 50 1014.2
20260905024025 32 60 1.6 4.8 0.00 0.00 0.00 50 1014.0
20260905023521 32 345 1.6 3.2 0.00 0.00 0.00 50 1014.0
20260905023020 32 163 0.0 6.4 0.00 0.00 0.00 49 1014.1
20260905022515 32 32 1.6 3.2 0.00 0.00 0.00 49 1013.8
20260905022010 32 273 3.2 4.8 0.00 0.00 0.00 49 1013.9
20260905021510 33 352 1.6 3.2 0.00 0.00 0.00 49 1013.7
20260905021005 33 226 3.2 3.2 0.00 0.00 0.00 49 1013.7
20260905020459 33 275 3.2 3.2 0.00 0.00 0.00 48 1013.5
20260905015954 33 219 1.6 4.8 0.00 0.00 0.00 48 1013.6
20260905015452 33 36 3.2 9.7 0.00 0.00 0.00 48 1013.5
20260905014952 33 117 0.0 6.4 0.00 0.00 0.00 48 1013.4
20260905014447 33 177 0.0 1.6 0.00 0.00 0.00 48 1013.3
20260905013942 33 62 1.6 4.8 0.00 0.00 0.00 47 1013.3
20260905013439 33 45 4.8 6.4 0.00 0.00 0.00 47 1013.2
20260905012933 33 43 1.6 3.2 0.00 0.00 0.00 47 1013.2
20260905012428 34 118 3.2 6.4 0.00 0.00 0.00 47 1013.1
20260905011925 34 31 1.6 11.3 0.00 0.00 0.00 47 1013.0
20260905011421 34 282 0.0 4.8 0.00 0.00 0.00 46 1012.6
20260905010916 34 297 0.0 3.2 0.00 0.00 0.00 46 1013.0
20260905010411 34 307 1.6 3.2 0.00 0.00 0.00 46 1012.7
20260905005907 34 23 1.6 12.9 0.00 0.00 0.00 45 1012.6
20260905005403 35 62 4.8 4.8 0.00 0.00 0.00 45 1012.7
20260905004857 35 15 1.6 6.4 0.00 0.00 0.00 45 1012.7
20260905004352 35 102 1.6 6.4 0.00 0.00 0.00 45 1012.6
20260905003847 35 103 3.2 6.4 0.00 0.00 0.00 45 1012.5
20260905003343 35 84 1.6 3.2 0.00 0.00 0.00 45 1012.6
20260905002838 35 262 1.6 6.4 0.00 0.00 0.00 44 1012.7
20260905002338 35 259 4.8 6.4 0.00 0.00 0.00 44 1012.7
20260905001832 35 64 0.0 3.2 0.00 0.00 0.00 44 1012.6
20260905001327 35 295 3.2 9.7 0.00 0.00 0.00 44 1012.5
20260905000822 35 322 1.6 6.4 0.00 0.00 0.00 43 1012.5
20260905000318 36 209 1.6 6.4 0.00 0.00 0.00 43 1012.5
20260904235812 36 269 1.6 4.8 0.00 0.00 0.00 43 1012.6
20260904235305 36 28 3.2 4.8 0.00 0.00 0.00 43 1012.6
20260904234757 36 31 0.0 1.6 0.00 0.00 0.00 42 1012.4
20260904234252 36 79 6.4 12.9 0.00 0.00 0.00 42 1012.7
20260904233748 36 270 3.2 12.9 0.00 0.00 0.00 42 1012.7
20260904233244 36 58 3.2 4.8 0.00 0.00 0.00 42 1012.5
20260904232741 36 52 3.2 4.8 0.00 0.00 0.00 42 1012.7
20260904232236 36 41 3.2 9.7 0.00 0.00 0.00 42 1012.6
20260904231731 36 108 1.6 3.2 0.00 0.00 0.00 42 1012.7
20260904231227 36 8 1.6 4.8 0.00 0.00 0.00 42 1012.6
20260904230727 36 261 1.6 9.7 0.00 0.00 0.00 42 1012.6
20260904230221 36 133 3.2 9.7 0.00 0.00 0.00 42 1012.6
20260904225720 36 117 1.6 9.7 0.00 0.00 0.00 42 1012.5
20260904225215 36 59 4.8 6.4 0.00 0.00 0.00 42 1012.6
20260904224714 36 11 0.0 3.2 0.00 0.00 0.00 42 1012.5
20260904224209 36 254 1.6 9.7 0.00 0.00 0.00 42 1012.5
20260904223708 36 115 0.0 6.4 0.00 0.00 0.00 43 1012.5
20260904223203 36 55 4.8 9.7 0.00 0.00 0.00 42 1012.4
20260904222659 36 13 3.2 14.5 0.00 0.00 0.00 42 1012.6
20260904222155 37 292 0.0 11.3 0.00 0.00 0.00 42 1012.6
20260904221653 37 318 0.0 3.2 0.00 0.00 0.00 42 1012.7
20260904221148 37 329 3.2 11.3 0.00 0.00 0.00 42 1012.4
20260904220638 36 71 4.8 4.8 0.00 0.00 0.00 42 1012.5
20260904220133 36 266 6.4 9.7 0.00 0.00 0.00 43 1012.6
20260904215627 37 271 9.7 12.9 0.00 0.00 0.00 42 1012.6
20260904215123 38 222 6.4 14.5 0.00 0.00 0.00 40 1012.5
20260904214623 37 171 6.4 16.1 0.00 0.00 0.00 41 1012.7
20260904214119 37 37 1.6 6.4 0.00 0.00 0.00 40 1012.6
20260904213617 38 296 1.6 9.7 0.00 0.00 0.00 41 1012.7
20260904213113 38 220 0.0 3.2 0.00 0.00 0.00 40 1012.7
20260904212608 38 281 3.2 4.8 0.00 0.00 0.00 40 1012.7
20260904212103 38 10 0.0 11.3 0.00 0.00 0.00 40 1012.7
20260904211602 38 210 4.8 9.7 0.00 0.00 0.00 40 1012.8
20260904211058 39 152 3.2 4.8 0.00 0.00 0.00 37 1012.7
20260904210557 38 279 6.4 9.7 0.00 0.00 0.00 37 1013.0
20260904210053 38 252 3.2 6.4 0.00 0.00 0.00 37 1013.0
20260904205549 38 293 3.2 12.9 0.00 0.00 0.00 39 1013.1
20260904205045 38 352 1.6 11.3 0.00 0.00 0.00 38 1013.1
20260904204541 37 109 3.2 6.4 0.00 0.00 0.00 40 1013.3
20260904204037 38 57 4.8 11.3 0.00 0.00 0.00 39 1013.4
20260904203532 38 254 3.2 11.3 0.00 0.00 0.00 38 1013.4